Erie, PA

8:53 AM EST on December 08, 2019 (GMT -0500)
Erie International

Weather History for KERI - October, 2019

Change the Weather History Date:

Thursday, October 31, 2019

  Actual Average Record
Temperature  
Mean Temperature 50 °F 48 °F  
Max Temperature 66 °F 56 °F 76 °F (1927)
Min Temperature 35 °F 41 °F 24 °F (1975)
Degree Days  
Heating Degree Days 14 17  
Month to date heating degree days 261 380  
Since 1 July heating degree days 273 503  
Cooling Degree Days 0 0  
Month to date cooling degree days 22 9  
Year to date cooling degree days 847 638  
Moisture  
Dew Point 55 °F    
Average Humidity 85    
Maximum Humidity 94    
Minimum Humidity 62    
Precipitation  
Precipitation 1.38 in 0.12 in 1.34 in (1982)
Month to date precipitation 3.86 4.05  
Year to date precipitation 33.49 34.49  
Snow  
Snow T in 0.00 in - ()
Month to date snowfall T 0.2  
Since 1 July snowfall T 0.2  
Since 1 September snowfall T 0.2  
Snow Depth 0.00 in    
Sea Level Pressure  
Sea Level Pressure 29.52 in    
Wind  
Wind Speed 9 mph ()    
Max Wind Speed 40 mph    
Max Gust Speed 52 mph    
Visibility 5.7 miles    
Events Fog , Rain    
T = Trace of Precipitation, MM = Missing Value Source: Averaged Metar Reports

Daily Weather History Graph

Daily Weather History Graph

Search for Another Location

Airport or City:

Astronomy

Oct. 31, 2019 Rise Set
Actual Time 7:51 AM EDT 6:16 PM EDT
Civil Twilight 7:22 AM EDT 6:45 PM EDT
Nautical Twilight 6:50 AM EDT 7:17 PM EDT
Astronomical Twilight 6:17 AM EDT 7:50 PM EDT
Moon 11:41 AM EDT (10/31) 9:08 PM EDT (10/31)
Length of Visible Light 11h 22m
Length of Day
10h 24m
Waxing Crescent, 15% of the Moon is Illuminated
Oct 31
Waxing Crescent
Nov 4
First Quarter
Nov 12
Full
Nov 19
Last Quarter
Nov 26
New

Hourly Weather History & Observations

Time (EDT) Temp. Windchill Dew Point Humidity Pressure Visibility Wind Dir Wind Speed Gust Speed Precip Events Conditions
12:51 AM 61.0 °F - 55.9 °F 83% 29.82 in 10.0 mi SSE 9.2 mph - 0.01 in Rain Light Rain
1:51 AM 61.0 °F - 55.9 °F 83% 29.81 in 10.0 mi South 9.2 mph - 0.00 in   Mostly Cloudy
2:07 AM 61.0 °F - 55.9 °F 83% 29.80 in 10.0 mi South 9.2 mph - N/A   Mostly Cloudy
2:42 AM 62.1 °F - 57.0 °F 84% 29.79 in 10.0 mi South 8.1 mph - N/A   Overcast
2:51 AM 62.1 °F - 57.0 °F 84% 29.80 in 10.0 mi SSW 6.9 mph - N/A   Overcast
3:51 AM 62.1 °F - 57.9 °F 86% 29.77 in 10.0 mi SSE 9.2 mph - N/A   Overcast
4:51 AM 62.1 °F - 57.9 °F 86% 29.73 in 10.0 mi SSE 6.9 mph - N/A   Overcast
5:51 AM 63.0 °F - 57.9 °F 84% 29.73 in 10.0 mi South 8.1 mph - N/A   Overcast
6:51 AM 63.0 °F - 59.0 °F 87% 29.70 in 10.0 mi South 5.8 mph - N/A   Overcast
7:51 AM 63.0 °F - 59.0 °F 87% 29.69 in 10.0 mi South 9.2 mph - 0.01 in   Mostly Cloudy
8:51 AM 63.0 °F - 59.0 °F 87% 29.67 in 10.0 mi South 5.8 mph - 0.00 in Rain Light Rain
9:51 AM 64.0 °F - 60.1 °F 87% 29.65 in 9.0 mi South 8.1 mph - 0.02 in Rain Light Rain
10:51 AM 64.0 °F - 60.1 °F 87% 29.60 in 3.0 mi SSE 6.9 mph - 0.09 in Rain Rain
11:51 AM 64.0 °F - 61.0 °F 90% 29.56 in 4.0 mi SE 3.5 mph - 0.13 in Rain Rain
12:03 PM 64.0 °F - 61.0 °F 90% 29.55 in 2.0 mi Calm Calm - 0.04 in Rain Rain
12:10 PM 64.0 °F - 61.0 °F 90% 29.54 in 1.8 mi SE 3.5 mph - 0.08 in Rain Rain
12:19 PM 64.0 °F - 61.0 °F 90% 29.54 in 2.5 mi South 4.6 mph - 0.12 in Rain Rain
12:41 PM 64.9 °F - 61.0 °F 87% 29.51 in 4.0 mi Variable 3.5 mph - 0.19 in Rain Rain
12:51 PM 64.9 °F - 62.1 °F 90% 29.50 in 2.0 mi SSE 5.8 mph - 0.21 in Rain Heavy Rain
12:59 PM 64.9 °F - 62.1 °F 90% 29.50 in 1.2 mi SSE 4.6 mph - 0.06 in Rain Heavy Rain
1:09 PM 64.9 °F - 62.1 °F 90% 29.48 in 3.0 mi Calm Calm - 0.09 in Rain Light Rain
1:36 PM 64.9 °F - 62.1 °F 90% 29.45 in 2.5 mi ENE 3.5 mph - 0.15 in Rain Rain
1:46 PM 64.4 °F - 62.6 °F 94% 29.44 in 5.0 mi Calm Calm - 0.16 in Rain Light Rain
1:51 PM 64.9 °F - 62.1 °F 90% 29.43 in 5.0 mi ENE 3.5 mph - 0.17 in Rain Light Rain
2:06 PM 64.9 °F - 62.1 °F 90% 29.44 in 2.5 mi Calm Calm - 0.02 in Rain Light Rain
2:11 PM 66.0 °F - 62.1 °F 87% 29.40 in 1.2 mi East 6.9 mph - 0.05 in Rain Heavy Rain
2:20 PM 66.0 °F - 63.0 °F 90% 29.41 in 3.0 mi ESE 4.6 mph - 0.08 in Rain Light Rain
2:51 PM 66.0 °F - 63.0 °F 90% 29.39 in 3.0 mi SSE 5.8 mph - 0.09 in Rain Light Rain
2:53 PM 66.0 °F - 63.0 °F 90% 29.39 in 2.5 mi South 5.8 mph - 0.00 in Rain Light Rain
3:08 PM 66.0 °F - 62.1 °F 87% 29.40 in 0.8 mi SSW 6.9 mph - 0.03 in Rain Heavy Rain
3:16 PM 66.0 °F - 63.0 °F 90% 29.40 in 0.5 mi Variable 5.8 mph - 0.20 in Fog , Rain Rain
3:18 PM 66.0 °F - 63.0 °F 90% 29.40 in 0.8 mi WNW 6.9 mph - 0.21 in Rain Rain
3:22 PM 66.0 °F - 63.0 °F 90% 29.39 in 2.0 mi WNW 4.6 mph - 0.22 in Rain Rain
3:26 PM 66.0 °F - 63.0 °F 90% 29.39 in 3.0 mi Calm Calm - 0.23 in Rain Light Rain
3:36 PM 64.9 °F - 62.1 °F 90% 29.38 in 2.5 mi Calm Calm - 0.25 in Rain Rain
3:47 PM 64.4 °F - 62.6 °F 94% 29.37 in 5.0 mi Calm Calm - 0.27 in Rain Light Rain
3:51 PM 64.9 °F - 62.1 °F 90% 29.37 in 7.0 mi Calm Calm - 0.27 in Rain Light Rain
4:06 PM 66.0 °F - 62.1 °F 87% 29.38 in 1.8 mi South 4.6 mph - 0.02 in Rain Rain
4:20 PM 66.0 °F - 62.1 °F 87% 29.36 in 3.0 mi South 5.8 mph - 0.10 in Rain Light Rain
4:37 PM 66.0 °F - 63.0 °F 90% 29.35 in 4.0 mi SW 3.5 mph - 0.13 in Rain Rain
4:47 PM 66.2 °F - 62.6 °F 88% 29.36 in 1.5 mi West 6.9 mph - 0.14 in Rain Light Rain
4:51 PM 66.0 °F - 63.0 °F 90% 29.35 in 0.8 mi WSW 8.1 mph - 0.24 in Rain Heavy Rain
4:58 PM 66.0 °F - 63.0 °F 90% 29.36 in 3.0 mi WSW 11.5 mph - 0.00 in Rain Light Rain
5:02 PM 63.0 °F - 60.1 °F 90% 29.38 in 4.0 mi West 25.3 mph 40.3 mph 0.00 in Rain Light Rain
5:08 PM 59.0 °F - 54.0 °F 83% 29.39 in 2.5 mi West 23.0 mph 40.3 mph 0.03 in Rain Rain
5:15 PM 57.9 °F - 54.0 °F 87% 29.40 in 1.8 mi WSW 25.3 mph 40.3 mph 0.03 in Rain Rain
5:27 PM 57.0 °F - 53.1 °F 87% 29.41 in 2.0 mi West 24.2 mph 36.8 mph 0.08 in Rain Rain
5:37 PM 55.9 °F - 52.0 °F 87% 29.42 in 8.0 mi WSW 27.6 mph 44.9 mph 0.09 in Rain Light Rain
5:51 PM 55.9 °F - 51.1 °F 84% 29.43 in 10.0 mi WSW 19.6 mph 39.1 mph 0.09 in   Overcast
6:51 PM 53.1 °F - 48.0 °F 83% 29.49 in 5.0 mi WSW 17.3 mph 33.4 mph 0.00 in Rain Light Rain
7:26 PM 53.1 °F - 46.9 °F 80% 29.51 in 10.0 mi WSW 19.6 mph 27.6 mph 0.00 in   Overcast
7:51 PM 52.0 °F - 42.1 °F 69% 29.52 in 10.0 mi SW 20.7 mph 33.4 mph 0.00 in   Overcast
8:47 PM 48.2 °F - 37.4 °F 66% 29.56 in 10.0 mi SW 27.6 mph 40.3 mph N/A   Overcast
8:51 PM 48.9 °F - 37.0 °F 64% 29.57 in 10.0 mi SW 20.7 mph 40.3 mph N/A   Overcast
9:51 PM 44.1 °F 34.8 °F 36.0 °F 73% 29.61 in 10.0 mi SW 25.3 mph 48.3 mph 0.00 in Rain Light Rain
10:37 PM 42.1 °F 31.9 °F 30.9 °F 65% 29.64 in 10.0 mi SW 26.5 mph 46.0 mph 0.00 in   Overcast
10:51 PM 42.1 °F 31.7 °F 30.0 °F 62% 29.65 in 10.0 mi SW 27.6 mph 51.8 mph 0.00 in   Overcast
11:09 PM 39.9 °F 27.6 °F 30.9 °F 70% 29.65 in 10.0 mi SSW 34.5 mph 43.7 mph 0.00 in Rain Light Rain
11:28 PM 39.0 °F 27.8 °F 30.9 °F 73% 29.66 in 10.0 mi SSW 26.5 mph 42.6 mph 0.00 in Rain Light Rain
11:44 PM 39.0 °F 27.4 °F 30.9 °F 73% 29.66 in 10.0 mi SSW 28.8 mph 44.9 mph 0.00 in Rain Light Rain
11:51 PM 39.0 °F 27.0 °F 30.9 °F 73% 29.67 in 10.0 mi SSW 31.1 mph 44.9 mph 0.00 in   Overcast